Terug naar catalogus

ONEWEB-0041

ActiefCommunicatiePO
NORAD 45148·PAYLOAD·🇬🇧 United Kingdom

Gelanceerd Feb 6, 2020 vanaf Baikonur Cosmodrome

Loading…

Volgende Passages (komende 24 uur)

TLE

VersSource: Space-Track

Epoch: Sep 14, 2026, 05:28 UTC

1 45148U 20008T   26257.22801220  .00000069  00000-0  88595-4 0  9995
2 45148  87.9423 345.5742 0016821 345.9755  14.0925 13.48612330330056

Volg ONEWEB-0041 in realtime met AllMySat

Download on the App Store